Lapse_Rate
6.9 6.7 6.6 6.7 6.6 6.5 6.4 6.5 6.4 6.2 6.0 5.6 5.5 5.5 5.4 5.6 5.6 5.5 5.6 5.6 5.7 5.9 5.9 5.8 5.9 5.9 6.0 6.0 5.9 6.0 6.0 5.9 5.5 6.0 6.1 6.3 6.2 5.5 5.5 5.4 4.9 4.6 5.6
6.9 6.7 6.8 7.0 6.8 6.5 6.5 6.4 6.1 5.8 5.6 5.6 5.6 5.5 5.4 5.4 5.6 5.6 5.4 5.6 5.7 6.0 6.0 6.1 6.0 6.1 6.3 6.1 6.0 6.0 5.6 5.3 5.0 5.4 6.0 6.1 6.1 6.1 5.7 4.9 4.8 5.2 5.5
7.0 6.9 6.9 7.0 6.9 6.7 6.6 6.4 6.1 5.7 5.5 5.5 5.6 5.6 5.5 5.5 5.6 5.5 5.5 5.3 5.6 5.9 6.2 6.3 6.3 6.2 6.5 6.2 5.8 5.9 5.3 5.3 5.4 4.9 5.5 5.8 6.0 5.9 5.5 5.1 4.9 5.0 5.4
7.0 7.0 6.8 6.9 6.8 6.7 6.6 6.3 5.9 5.8 5.8 5.6 5.6 5.7 5.6 5.6 5.6 5.5 5.6 5.5 5.5 5.8 6.3 6.3 6.3 6.2 6.2 6.2 6.0 5.8 5.4 4.9 5.0 5.0 5.2 5.7 5.8 6.0 5.5 5.1 4.8 5.3 5.2
6.9 6.8 6.7 6.6 6.7 6.9 6.7 6.1 5.7 5.6 5.5 5.5 5.8 5.9 5.8 5.6 5.6 5.5 5.3 5.3 5.7 6.1 6.4 6.3 6.3 6.1 6.0 5.9 5.8 5.5 5.4 5.4 4.7 4.8 4.9 5.3 5.7 5.8 5.7 5.5 5.4 5.3 5.6
7.0 6.9 7.2 6.7 6.6 6.8 6.3 5.8 5.6 5.3 5.2 5.4 5.8 5.7 5.5 5.5 5.6 5.5 5.5 5.6 5.8 6.0 6.3 6.4 6.4 6.1 6.2 6.2 6.1 5.5 5.3 5.2 5.1 4.7 5.0 5.4 5.6 5.4 5.5 5.3 5.2 5.0 5.0
7.4 7.0 7.0 6.9 6.9 6.6 6.1 5.9 5.5 5.3 5.4 5.6 5.8 5.9 5.6 5.6 5.6 5.8 5.8 6.0 6.0 6.1 6.3 6.4 6.3 6.2 5.9 5.9 5.9 5.5 5.8 5.1 4.9 4.5 4.9 5.4 5.4 5.6 5.7 5.4 5.2 5.2 5.4
7.2 7.1 7.0 7.0 6.8 6.2 5.9 5.6 5.6 5.8 5.8 5.8 6.0 6.1 5.8 5.8 5.6 5.9 6.0 6.1 6.1 6.1 6.2 6.2 6.1 6.1 5.9 5.9 5.9 5.6 5.1 4.7 4.7 4.4 5.1 5.7 5.5 5.8 4.9 5.5 5.4 5.2 5.2
7.1 7.0 7.1 6.8 6.3 6.0 5.8 5.8 5.8 5.7 5.6 5.7 6.0 5.9 5.8 5.7 5.8 5.9 6.0 6.1 6.1 6.1 6.2 6.0 6.1 6.0 5.9 5.5 5.5 5.4 5.2 5.0 4.5 4.7 5.1 6.1 6.1 6.0 5.9 5.6 5.4 5.0 5.3
7.2 7.2 7.0 6.5 6.1 6.1 6.1 5.8 5.7 5.7 5.8 5.7 5.9 5.8 5.4 5.3 5.4 5.4 5.9 5.7 6.0 6.1 5.9 5.8 6.0 6.0 5.8 5.7 5.6 5.6 5.2 4.7 4.4 4.4 5.6 6.4 6.7 6.4 5.9 5.5 5.2 4.8 5.2
7.1 7.0 6.7 6.4 6.3 6.3 6.1 5.8 5.8 5.9 5.9 6.1 6.2 6.1 5.6 5.5 5.4 5.9 5.6 5.7 5.8 6.0 5.8 5.7 6.1 6.0 5.8 5.5 5.7 5.4 5.0 4.3 4.1 4.3 5.7 6.0 6.8 6.6 6.1 5.5 5.6 5.5 5.5
7.3 7.2 6.8 6.5 6.1 5.8 5.9 5.7 5.7 5.8 5.9 6.2 6.1 5.8 5.6 5.5 5.8 5.3 5.4 5.9 5.9 6.1 6.1 6.1 5.9 5.9 5.7 5.8 5.8 5.1 4.8 4.5 4.0 4.1 4.8 5.8 6.2 6.4 5.9 5.7 5.5 5.2 5.5
7.3 7.0 6.8 6.6 6.4 6.5 6.2 6.0 5.7 5.9 6.2 6.0 5.7 5.6 5.9 6.0 5.3 5.7 5.9 5.8 6.1 6.2 6.3 6.3 5.8 6.1 5.7 6.1 5.7 5.1 5.0 4.9 4.4 4.1 4.0 5.3 5.9 5.2 5.7 5.6 5.3 5.3 5.2
7.6 7.3 7.5 7.2 6.7 6.3 6.1 5.9 5.8 6.3 6.0 5.7 5.8 6.0 5.6 5.5 5.5 5.5 5.6 5.7 6.0 6.2 6.2 6.2 5.9 6.0 5.7 5.8 5.9 5.2 5.0 4.8 4.5 3.5 4.0 3.8 5.2 5.5 5.4 5.3 5.2 5.3 5.3
7.3 7.6 7.4 6.6 6.5 6.4 6.1 5.6 6.2 6.5 6.5 6.0 5.9 5.8 5.7 5.6 5.3 5.8 5.7 5.6 5.8 5.9 6.0 5.9 5.8 6.0 5.6 5.7 5.9 5.5 5.3 4.9 4.6 4.3 3.6 3.6 3.9 5.2 5.1 5.3 5.6 5.7 5.4
7.5 7.4 6.7 6.4 6.2 6.0 5.9 6.3 6.3 6.1 6.0 6.0 6.1 5.9 5.9 5.8 5.7 5.9 5.8 5.6 5.7 5.8 5.9 6.1 6.2 5.9 5.7 5.8 5.9 6.0 5.6 4.9 4.7 4.8 4.1 3.6 3.5 3.4 4.6 5.3 5.4 5.3 5.3
7.1 7.0 6.4 6.0 5.9 6.0 6.0 6.3 6.1 6.3 6.3 6.3 6.1 6.0 5.7 5.9 5.7 5.8 5.9 6.1 6.1 5.9 6.1 6.1 6.1 6.0 5.9 5.6 5.6 5.5 5.6 5.6 4.9 5.0 4.8 4.0 3.7 3.4 3.8 4.1 5.0 5.0 5.0
7.2 6.8 6.4 6.3 6.0 6.1 6.2 6.1 5.9 6.0 6.2 6.4 6.5 6.3 5.9 5.9 5.7 5.7 6.1 6.4 6.5 6.5 6.3 6.2 6.2 6.3 6.0 5.6 5.5 5.4 5.3 5.4 5.4 5.7 5.2 4.6 4.1 3.9 3.6 3.6 3.5 4.1 4.8
7.1 6.7 6.3 5.9 6.0 6.3 6.3 6.3 6.3 6.4 6.3 6.2 6.4 6.3 5.9 5.7 5.8 6.0 6.4 6.5 6.6 6.6 6.5 6.2 6.2 6.2 6.1 5.6 5.2 5.2 5.1 5.3 5.2 5.3 5.9 5.8 4.9 4.5 4.1 3.9 3.8 3.8 3.7
7.3 6.8 6.5 5.8 5.6 6.3 6.1 6.2 6.4 6.2 6.0 6.1 6.4 6.2 6.2 6.0 5.7 6.5 6.4 6.4 6.5 6.5 6.5 6.2 5.9 5.8 5.8 5.8 4.9 4.9 5.1 5.1 5.1 5.2 5.2 5.4 5.7 5.8 5.1 4.4 4.3 4.0 3.5
7.0 6.2 6.5 6.1 6.2 6.0 6.2 6.2 6.0 6.0 6.0 6.3 6.3 6.1 6.3 6.0 6.1 6.1 6.4 6.5 6.4 6.5 6.5 6.4 6.1 6.0 5.9 5.7 5.4 5.1 4.6 4.9 4.9 4.6 4.8 4.9 4.9 5.3 5.3 5.8 5.1 4.4 4.1
6.3 6.3 6.1 6.1 6.0 6.1 6.1 6.0 6.0 6.1 6.2 6.4 6.6 6.4 6.4 6.4 6.3 6.2 6.3 6.5 6.6 6.6 6.6 6.2 6.2 6.1 6.0 5.8 5.6 5.5 5.3 5.2 5.1 4.9 4.8 5.1 5.1 4.9 4.8 4.9 5.2 5.8 5.4
6.3 6.1 6.1 5.9 6.0 6.0 5.8 5.6 5.7 6.0 5.9 6.4 6.3 6.7 6.7 6.8 6.4 6.5 6.3 6.3 6.4 6.2 6.2 6.1 5.9 6.0 6.0 5.7 5.7 5.7 5.5 5.4 5.4 5.3 5.2 5.2 5.1 5.0 4.9 4.8 4.7 4.8 5.0
6.2 6.3 6.3 6.0 5.9 5.8 5.6 5.6 5.5 5.8 5.9 5.9 6.2 6.2 6.2 6.7 6.8 6.4 6.4 6.4 6.3 6.1 6.2 6.2 6.0 6.0 6.0 5.9 5.8 5.7 5.6 5.4 5.3 5.2 5.2 5.1 5.1 5.0 5.0 4.8 4.8 4.8 4.7
6.4 6.5 6.3 6.1 5.8 6.4 6.6 6.4 5.7 5.7 6.4 6.2 6.1 6.1 6.2 6.3 6.4 6.4 6.3 6.3 6.2 6.3 6.2 6.2 6.3 6.0 6.1 6.0 6.0 5.7 5.5 5.5 5.4 5.3 5.2 5.2 5.2 5.0 5.0 5.0 4.9 4.8 4.9
6.1 6.1 5.8 5.5 5.5 5.8 6.3 6.2 6.0 5.9 5.9 6.0 6.2 6.3 6.3 6.2 6.4 6.4 6.4 6.3 6.3 6.3 6.4 6.3 6.3 6.4 6.2 6.2 6.2 6.1 5.9 5.8 5.7 5.6 5.6 5.6 5.6 5.6 5.5 5.3 5.3 5.3 5.2
Wind_Speed
8 7 5 4 5 6 4 5 4 4 4 4 5 6 6 8 7 6 5 7 8 3 4 5 3 4 6 7 7 8 8 9 14 13 12 12 9 10 8 12 15 15 12
8 7 7 5 4 3 4 4 3 4 4 5 5 6 7 8 6 6 6 6 6 5 5 4 4 3 5 5 6 9 9 10 13 17 13 12 12 11 11 10 10 17 3
9 7 7 6 6 5 5 4 4 4 5 6 5 6 7 7 7 7 7 5 6 6 5 5 3 2 5 5 6 7 8 9 10 12 13 11 11 10 9 9 10 7 10
12 10 9 8 7 6 5 5 4 6 6 5 5 6 7 8 8 9 7 6 7 7 5 5 5 5 5 6 6 7 8 9 10 10 11 12 10 12 8 8 9 9 11
8 7 7 7 7 7 6 6 6 6 5 6 6 7 7 7 7 2 3 7 6 7 6 6 7 7 8 8 6 9 8 8 9 9 11 11 11 12 12 9 10 10 10
8 8 7 7 9 8 7 7 7 6 4 5 6 6 5 6 4 6 6 5 6 7 8 6 7 9 10 11 15 14 10 10 13 11 11 13 13 12 13 11 8 10 10
7 7 7 7 7 7 8 7 5 4 5 5 6 6 6 6 7 10 9 5 7 8 8 6 9 7 9 10 11 12 12 17 18 17 16 15 15 14 14 15 13 9 12
11 10 9 8 8 8 8 7 5 5 6 5 7 6 6 6 9 7 9 8 8 10 9 9 11 10 10 11 9 9 12 16 17 14 17 18 17 15 15 13 14 12 9
12 11 10 9 9 9 8 6 5 5 6 6 6 7 7 7 3 7 7 7 11 11 7 9 9 8 9 6 6 8 12 17 20 28 29 31 31 28 21 9 11 13 12
13 12 10 10 9 9 7 7 4 3 4 6 9 7 7 3 4 9 3 2 9 11 8 8 7 4 7 5 5 7 11 17 19 24 20 20 23 23 30 17 12 11 11
12 11 10 10 8 7 5 3 3 4 3 7 6 7 6 2 4 8 5 3 6 7 8 7 3 6 10 10 5 6 10 16 20 17 16 13 9 11 12 14 15 11 11
7 7 7 7 5 4 4 3 4 4 6 8 6 7 6 2 4 3 8 8 10 7 8 6 3 10 8 8 8 12 14 16 11 13 14 15 12 7 9 11 15 12 9
2 4 4 3 5 3 3 5 4 7 8 4 4 6 4 5 4 2 7 9 12 5 6 6 6 8 8 7 12 14 11 9 11 12 13 13 14 12 11 8 10 15 13
3 3 4 4 2 3 5 6 5 3 1 1 3 3 4 2 5 5 6 7 8 8 10 7 3 8 11 7 8 8 7 8 9 10 12 12 12 14 12 8 5 8 9
5 2 3 4 6 7 9 8 5 7 4 3 5 5 5 4 4 3 3 6 7 7 9 5 2 4 6 7 7 7 8 8 9 11 9 11 12 13 13 12 8 7 7
4 5 3 3 4 4 7 6 15 10 8 11 7 6 4 6 5 7 7 10 12 8 3 4 7 8 7 7 7 7 7 10 9 9 10 11 10 10 12 11 10 10 8
4 4 2 4 3 2 4 4 4 2 4 7 7 6 6 1 5 7 9 8 13 11 6 8 7 6 6 5 7 6 7 6 6 8 9 10 11 9 10 10 11 9 11
4 3 3 2 2 4 3 2 2 2 2 1 3 2 5 6 6 11 15 7 4 7 7 7 6 6 7 7 8 7 9 8 8 7 9 9 10 10 8 7 7 8 10
2 3 3 2 5 3 3 2 3 2 2 1 3 2 5 7 6 7 12 6 5 6 7 7 6 6 6 6 7 8 7 8 8 8 8 8 9 9 10 9 9 10 8
3 4 5 1 6 4 3 3 1 2 1 3 3 4 4 5 5 5 4 4 5 4 4 4 3 3 3 3 5 6 7 6 7 7 8 8 7 7 8 9 8 8 8
2 5 1 5 5 4 4 3 4 3 3 4 4 4 4 3 4 3 2 3 3 2 3 4 4 2 3 1 2 3 6 7 8 8 8 7 8 9 7 8 9 8 7
4 3 3 3 3 5 4 6 4 3 3 4 5 4 1 3 2 1 2 1 1 1 4 4 4 5 5 6 6 7 7 7 9 9 9 7 7 7 7 7 8 8 8
3 3 4 4 4 3 4 4 4 3 4 5 5 7 6 4 2 2 3 3 1 4 4 5 5 5 6 8 10 7 6 6 8 9 8 7 7 6 6 6 7 6 8
4 4 3 2 3 2 4 5 3 3 2 4 3 2 2 7 5 2 4 1 4 4 3 4 5 7 7 9 10 11 10 11 12 11 12 7 7 10 6 6 5 8 6
5 5 5 5 6 6 6 6 6 4 4 5 2 2 2 2 1 2 3 3 2 3 4 4 6 10 9 11 12 12 14 17 13 16 13 9 8 12 9 7 7 5 8
3 4 6 5 5 3 4 4 6 3 4 4 4 3 2 2 2 2 2 1 1 4 1 4 5 5 10 10 9 13 18 22 21 25 17 7 8 7 8 8 11 7 7
Wind_Direction
180 169 151 158 181 174 190 221 243 275 275 273 275 277 287 291 291 288 277 256 268 296 300 305 337 355 346 333 336 325 307 314 284 276 270 264 242 243 242 223 232 229 264
176 166 159 166 185 199 197 226 250 267 269 274 269 270 280 285 283 299 290 307 306 293 286 284 304 359 330 330 332 317 313 306 324 275 272 266 255 241 248 221 224 242 318
182 159 161 169 176 194 215 230 243 252 254 258 271 280 285 291 283 263 265 276 286 279 273 291 293 331 294 304 302 307 311 316 325 317 293 266 259 257 255 221 217 192 205
176 178 170 170 181 197 212 222 234 245 255 273 277 273 272 267 269 266 263 263 266 269 271 272 268 241 266 298 301 304 307 316 320 315 303 299 262 254 245 243 228 212 209
165 158 162 161 175 188 213 217 237 251 258 261 266 266 269 268 282 6 279 257 260 268 257 257 257 240 231 253 271 288 303 308 306 303 297 292 288 257 242 234 228 226 225
169 177 165 180 180 195 214 215 221 237 269 282 288 276 283 288 141 245 260 280 274 269 274 262 271 278 252 243 253 258 280 298 300 297 288 283 277 281 260 241 229 220 223
178 193 178 189 190 201 212 218 214 242 259 273 286 284 277 286 209 242 245 255 268 274 282 272 274 273 281 271 263 267 289 297 273 275 277 272 270 258 265 250 238 228 224
187 196 194 194 200 206 211 218 205 217 237 257 261 265 276 276 208 251 251 259 267 269 269 272 274 285 279 278 303 295 306 302 302 297 281 270 264 264 247 260 248 232 233
195 198 199 200 207 214 217 215 210 222 248 242 251 261 271 267 306 359 341 315 305 291 282 267 272 281 304 359 314 300 309 313 316 309 293 268 256 252 253 261 249 235 231
198 198 197 206 210 218 223 199 179 211 277 279 276 268 268 92 123 170 124 37 294 295 291 281 296 28 330 2 330 314 318 324 313 316 316 302 242 236 234 234 227 229 223
194 193 197 204 201 205 184 124 162 235 266 286 298 304 295 292 239 191 209 227 270 293 306 304 353 23 24 354 336 347 327 314 321 326 329 338 311 207 219 214 215 225 210
188 194 196 192 194 156 173 160 205 224 248 262 266 263 290 251 22 183 220 247 273 279 283 292 358 47 11 19 358 327 333 325 331 325 338 355 355 328 209 205 207 214 224
182 183 198 160 148 184 193 173 228 243 242 264 235 261 304 46 82 229 298 280 278 252 271 327 330 72 31 23 347 337 335 335 336 333 328 348 357 347 334 207 210 207 211
240 214 167 149 180 216 224 208 204 304 321 243 285 9 6 69 44 12 338 313 339 344 5 321 337 114 59 4 353 354 343 338 326 331 339 337 349 4 4 359 229 197 209
297 221 220 231 208 233 52 349 78 64 41 7 37 0 13 10 39 270 292 328 330 323 321 304 310 61 35 10 358 354 349 346 345 342 342 343 3 2 7 11 5 11 231
242 200 234 272 283 145 144 110 50 93 100 98 92 57 103 96 345 325 296 293 298 287 287 12 36 37 24 8 352 354 356 354 350 336 348 354 356 5 2 11 19 32 21
240 279 280 230 328 51 82 75 134 100 71 98 100 90 69 295 330 332 333 308 290 330 38 41 34 20 12 2 352 356 351 347 336 348 357 355 356 351 357 13 19 24 32
237 185 247 295 103 100 105 79 154 205 176 114 193 214 238 266 13 346 340 338 40 55 47 45 26 19 12 3 360 3 355 353 359 4 4 359 354 359 3 1 14 23 36
253 30 151 93 45 56 109 112 61 104 138 87 99 215 211 272 324 7 12 24 35 43 47 46 28 24 18 0 349 344 355 352 351 352 7 9 10 360 1 360 13 18 33
141 23 335 190 141 131 118 129 140 80 204 208 71 22 15 10 43 54 49 38 45 44 94 91 73 44 23 356 347 343 345 345 351 355 360 8 8 9 9 1 29 19 11
162 129 99 134 128 119 157 192 195 212 178 89 92 74 25 49 44 55 22 42 20 60 52 32 37 108 138 60 326 344 355 357 1 359 7 10 1 2 14 16 20 24 27
68 171 187 148 195 192 204 209 198 211 184 161 152 132 189 108 95 3 320 334 39 245 50 54 10 33 34 29 33 13 4 360 359 359 353 1 0 4 7 20 21 22 24
127 142 107 80 102 127 247 262 245 211 185 203 180 162 179 177 167 189 273 279 78 52 40 58 38 38 26 46 46 40 20 7 336 349 342 338 358 353 10 9 21 17 24
121 148 160 171 208 228 282 284 121 90 322 288 200 233 213 155 159 102 241 314 67 65 53 82 85 57 37 41 35 40 28 4 336 343 331 342 10 351 14 8 20 19 20
226 200 206 232 190 212 230 229 280 219 195 226 207 210 201 195 188 156 125 119 103 128 112 80 68 97 72 55 46 28 4 3 357 350 339 331 34 4 1 12 10 22 21
238 248 257 255 262 258 281 278 261 236 222 210 212 213 217 225 167 136 151 145 136 114 70 90 109 101 102 70 48 23 13 7 358 349 343 30 14 22 3 8 16 13 28